CW2377 Weather Reports


Display with metric or nautical units.
time (UTC)temp
F
wind
direction
speed
MPH
gust
MPH
rain 1hr
in
rain 24hr
in
rain mn
in
humidity
%
barometer
mb
20260510224204 63 11 0.0 0.0 0.00 0.00 0.00 31 1018.3
20260510223703 63 11 0.0 0.0 0.00 0.00 0.00 31 1018.2
20260510222703 64 11 0.0 0.0 0.00 0.00 0.00 29 1018.1
20260510222203 64 11 0.0 0.0 0.00 0.00 0.00 30 1018.1
20260510221203 64 11 0.0 0.0 0.00 0.00 0.00 28 1018.2
20260510220703 64 11 0.0 0.0 0.00 0.00 0.00 29 1018.1
20260510220203 64 11 0.0 0.0 0.00 0.00 0.00 28 1017.8
20260510215704 64 11 0.0 0.0 0.00 0.00 0.00 29 1018.0
20260510215203 64 11 0.0 0.0 0.00 0.00 0.00 29 1018.0
20260510214704 64 11 0.0 0.0 0.00 0.00 0.00 30 1018.0
20260510214204 64 11 0.0 0.0 0.00 0.00 0.00 29 1017.9
20260510213704 64 11 0.0 0.0 0.00 0.00 0.00 28 1018.0
20260510213204 65 11 0.0 0.0 0.00 0.00 0.00 29 1017.9
20260510212704 65 11 0.0 0.0 0.00 0.00 0.00 28 1017.9
20260510212204 66 11 0.0 0.0 0.00 0.00 0.00 28 1017.9
20260510211703 66 11 0.0 0.0 0.00 0.00 0.00 27 1017.8
20260510211203 66 11 0.0 0.0 0.00 0.00 0.00 30 1017.9
20260510210704 66 11 0.0 0.0 0.00 0.00 0.00 28 1017.8
20260510210203 65 11 0.0 0.0 0.00 0.00 0.00 28 1017.9
20260510204704 66 11 0.0 0.0 0.00 0.00 0.00 28 1018.0
20260510204203 67 11 0.0 0.0 0.00 0.00 0.00 25 1018.1
20260510203703 67 11 0.0 0.0 0.00 0.00 0.00 25 1018.2
20260510203203 67 11 0.0 0.0 0.00 0.00 0.00 27 1018.2
20260510202203 67 11 0.0 0.0 0.00 0.00 0.00 26 1018.2
20260510201703 67 11 0.0 0.0 0.00 0.00 0.00 26 1018.2
20260510201204 66 11 0.0 0.0 0.00 0.00 0.00 27 1018.3
20260510200704 67 11 0.0 0.0 0.00 0.00 0.00 27 1018.3
20260510200203 68 11 0.0 0.0 0.00 0.00 0.00 27 1018.2
20260510195704 69 11 0.0 0.0 0.00 0.00 0.00 25 1018.2
20260510195204 70 11 0.0 0.0 0.00 0.00 0.00 26 1018.2
20260510194704 69 11 0.0 0.0 0.00 0.00 0.00 28 1016.7
20260510194204 69 11 0.0 0.0 0.00 0.00 0.00 27 1018.1
20260510193704 68 11 0.0 0.0 0.00 0.00 0.00 28 1016.7
20260510193204 67 11 0.0 0.0 0.00 0.00 0.00 29 1016.9
20260510191703 67 11 0.0 0.0 0.00 0.00 0.00 28 1018.4
20260510191203 66 11 0.0 0.0 0.00 0.00 0.00 31 1018.4
20260510190703 64 11 0.0 0.0 0.00 0.00 0.00 32 1018.4
20260510185704 65 11 0.0 0.0 0.00 0.00 0.00 31 1018.5
20260510185204 65 11 0.0 0.0 0.00 0.00 0.00 30 1018.4
20260510184704 65 11 0.0 0.0 0.00 0.00 0.00 29 1018.4
20260510184205 65 11 0.0 0.0 0.00 0.00 0.00 30 1018.4
20260510183704 66 11 0.0 0.0 0.00 0.00 0.00 29 1018.4
20260510183203 66 11 0.0 0.0 0.00 0.00 0.00 30 1018.3
20260510182704 67 11 0.0 0.0 0.00 0.00 0.00 29 1018.3
20260510181704 65 0 0.0 0.0 0.00 0.00 0.00 33 1018.4
20260510180703 65 0 0.0 0.0 0.00 0.00 0.00 28 1018.4
20260510175704 66 0 0.0 0.0 0.00 0.00 0.00 34 1018.5
20260510174704 64 0 0.0 0.0 0.00 0.00 0.00 33 1018.6
20260510174204 64 0 0.0 0.0 0.00 0.00 0.00 33 1018.6
20260510173704 65 0 0.0 0.0 0.00 0.00 0.00 32 1018.6
20260510173204 65 0 0.0 0.0 0.00 0.00 0.00 32 1018.6
20260510172703 64 0 0.0 0.0 0.00 0.00 0.00 33 1018.7
20260510172203 63 0 0.0 0.0 0.00 0.00 0.00 33 1018.7
20260510171703 62 0 0.0 0.0 0.00 0.00 0.00 37 1018.7
20260510171203 62 0 0.0 0.0 0.00 0.00 0.00 34 1018.7
20260510170704 62 0 0.0 0.0 0.00 0.00 0.00 35 1018.7
20260510170204 62 0 0.0 0.0 0.00 0.00 0.00 34 1018.8
20260510165204 64 0 0.0 0.0 0.00 0.00 0.00 31 1018.6
20260510164204 64 0 0.0 0.0 0.00 0.00 0.00 32 1018.6
20260510163204 64 0 0.0 0.0 0.00 0.00 0.00 35 1018.5
20260510162704 64 0 0.0 0.0 0.00 0.00 0.00 38 1018.4
20260510162204 63 0 0.0 0.0 0.00 0.00 0.00 32 1018.4
20260510161703 64 0 0.0 0.0 0.00 0.00 0.00 36 1018.5
20260510161204 63 0 0.0 0.0 0.00 0.00 0.00 37 1018.4
20260510160704 63 0 0.0 0.0 0.00 0.00 0.00 33 1018.4
20260510160203 63 0 0.0 0.0 0.00 0.00 0.00 35 1018.4
20260510155703 63 0 0.0 0.0 0.00 0.00 0.00 35 1018.6
20260510155204 63 0 0.0 0.0 0.00 0.00 0.00 34 1018.6
20260510154704 64 0 0.0 0.0 0.00 0.00 0.00 33 1018.5
20260510154204 63 0 0.0 0.0 0.00 0.00 0.00 35 1018.4
20260510153703 64 0 0.0 0.0 0.00 0.00 0.00 38 1018.5
20260510153204 63 0 0.0 0.0 0.00 0.00 0.00 39 1018.5
20260510152704 63 0 0.0 0.0 0.00 0.00 0.00 36 1018.5
20260510152204 63 0 0.0 0.0 0.00 0.00 0.00 37 1018.4
20260510151704 63 0 0.0 0.0 0.00 0.00 0.00 37 1018.4
20260510151204 62 0 0.0 0.0 0.00 0.00 0.00 41 1018.4
20260510150703 62 0 0.0 0.0 0.00 0.00 0.00 38 1018.3
20260510150204 61 0 0.0 0.0 0.00 0.00 0.00 39 1018.3
20260510145704 61 0 0.0 0.0 0.00 0.00 0.00 42 1018.2
20260510144705 59 0 0.0 0.0 0.00 0.00 0.00 42 1018.1
20260510144205 59 0 0.0 0.0 0.00 0.00 0.00 44 1018.1
20260510143704 59 0 0.0 0.0 0.00 0.00 0.00 42 1018.1
20260510143204 59 0 0.0 0.0 0.00 0.00 0.00 42 1018.0
20260510142704 58 0 0.0 0.0 0.00 0.00 0.00 43 1018.1
20260510141703 58 0 0.0 0.0 0.00 0.00 0.00 44 1018.0
20260510140703 58 0 0.0 0.0 0.00 0.00 0.00 43 1018.0
20260510140203 57 0 0.0 0.0 0.00 0.00 0.00 44 1017.9
20260510135704 57 0 0.0 0.0 0.00 0.00 0.00 44 1017.9
20260510135203 57 0 0.0 0.0 0.00 0.00 0.00 41 1018.0
20260510134704 56 0 0.0 0.0 0.00 0.00 0.00 44 1017.9
20260510134203 55 0 0.0 0.0 0.00 0.00 0.00 46 1017.9
20260510133204 55 0 0.0 0.0 0.00 0.00 0.00 49 1017.7
20260510132704 54 0 0.0 0.0 0.00 0.00 0.00 48 1017.8
20260510132204 53 0 0.0 0.0 0.00 0.00 0.00 47 1017.7
20260510131704 53 0 0.0 0.0 0.00 0.00 0.00 47 1017.7
20260510131203 52 0 0.0 0.0 0.00 0.00 0.00 53 1017.6
20260510130703 52 0 0.0 0.0 0.00 0.00 0.00 55 1017.6
20260510130204 51 0 0.0 0.0 0.00 0.00 0.00 54 1017.5
20260510125703 51 0 0.0 0.0 0.00 0.00 0.00 59 1017.4
20260510125204 50 0 0.0 0.0 0.00 0.00 0.00 56 1017.3
20260510124704 49 0 0.0 0.0 0.00 0.00 0.00 61 1017.2
20260510124204 49 0 0.0 0.0 0.00 0.00 0.00 70 1017.1
20260510123704 48 0 0.0 0.0 0.00 0.00 0.00 71 1017.1
20260510123203 47 0 0.0 0.0 0.00 0.00 0.00 73 1017.0
20260510122203 46 0 0.0 0.0 0.00 0.00 0.00 82 1016.9
20260510121703 45 0 0.0 0.0 0.00 0.00 0.00 84 1016.9
20260510121204 45 0 0.0 0.0 0.00 0.00 0.00 87 1016.7
20260510120203 43 0 0.0 0.0 0.00 0.00 0.00 89 1016.6
20260510115703 42 0 0.0 0.0 0.00 0.00 0.00 89 1016.6
20260510115203 42 0 0.0 0.0 0.00 0.00 0.00 90 1016.4
20260510114703 41 0 0.0 0.0 0.00 0.00 0.00 90 1016.3
20260510113704 40 0 0.0 0.0 0.00 0.00 0.00 91 1016.2
20260510112703 40 0 0.0 0.0 0.00 0.00 0.00 91 1016.2
20260510112203 39 0 0.0 0.0 0.00 0.00 0.00 91 1016.1
20260510111704 39 0 0.0 0.0 0.00 0.00 0.00 91 1016.1
20260510111203 39 0 0.0 0.0 0.00 0.00 0.00 91 1016.0
20260510110703 39 0 0.0 0.0 0.00 0.00 0.00 90 1015.9
20260510110204 39 0 0.0 0.0 0.00 0.00 0.00 90 1015.9
20260510105204 39 0 0.0 0.0 0.00 0.00 0.00 90 1015.7
20260510104704 39 0 0.0 0.0 0.00 0.00 0.00 90 1015.6
20260510104203 39 0 0.0 0.0 0.00 0.00 0.00 90 1015.5
20260510103704 39 17 0.0 0.0 0.00 0.00 0.00 89 1015.4
20260510102203 39 17 0.0 0.0 0.00 0.00 0.00 89 1015.3
20260510101703 39 17 0.0 0.0 0.00 0.00 0.00 89 1015.2
20260510101203 39 17 0.0 0.0 0.00 0.00 0.00 89 1015.2
20260510100703 39 17 0.0 0.0 0.00 0.00 0.00 89 1015.1
20260510100204 39 17 0.0 0.0 0.00 0.00 0.00 89 1015.1
20260510095203 40 17 0.0 0.0 0.00 0.00 0.00 87 1015.0
20260510094703 40 17 0.0 0.0 0.00 0.00 0.00 86 1015.0
20260510094204 40 17 0.0 0.0 0.00 0.00 0.00 86 1015.0
20260510093704 40 17 0.0 0.0 0.00 0.00 0.00 85 1015.0
20260510093203 41 17 0.0 0.0 0.00 0.00 0.00 85 1015.1
20260510092704 41 17 0.0 0.0 0.00 0.00 0.00 84 1015.1
20260510092204 41 17 0.0 0.0 0.00 0.00 0.00 84 1015.1
20260510091703 41 17 0.0 0.0 0.00 0.00 0.00 83 1015.0
20260510090704 41 17 0.0 0.0 0.00 0.00 0.00 83 1015.0
20260510090204 42 17 0.0 0.0 0.00 0.00 0.00 82 1014.8
20260510085703 42 17 0.0 0.0 0.00 0.00 0.00 82 1014.7
20260510085203 42 17 0.0 0.0 0.00 0.00 0.00 82 1014.7
20260510084705 42 17 0.0 0.0 0.00 0.00 0.00 80 1014.7
20260510084204 42 17 0.0 0.0 0.00 0.00 0.00 80 1014.6
20260510083704 43 17 0.0 0.0 0.00 0.00 0.00 80 1014.5
20260510083203 43 17 0.0 0.0 0.00 0.00 0.00 79 1014.4
20260510081705 43 17 0.0 0.0 0.00 0.00 0.00 77 1014.2
20260510081205 44 17 0.0 0.0 0.00 0.00 0.00 76 1014.1
20260510080703 44 17 0.0 0.0 0.00 0.00 0.00 75 1014.1
20260510080204 44 17 0.0 0.0 0.00 0.00 0.00 75 1013.9
20260510075703 44 17 0.0 0.0 0.00 0.00 0.00 74 1013.9
20260510075203 45 17 0.0 0.0 0.00 0.00 0.00 73 1013.8
20260510074705 45 17 0.0 0.0 0.00 0.00 0.00 72 1013.8
20260510074205 45 17 0.0 0.0 0.00 0.00 0.00 71 1013.9
20260510073704 46 17 0.0 0.0 0.00 0.00 0.00 70 1013.8
20260510073203 46 17 0.0 0.0 0.00 0.00 0.00 69 1013.7
20260510072204 47 17 0.0 0.0 0.00 0.00 0.00 67 1013.6
20260510071704 47 17 0.0 0.0 0.00 0.00 0.00 66 1013.5
20260510070204 47 17 0.0 0.0 0.00 0.00 0.00 65 1013.3
20260510065703 47 17 0.0 0.0 0.00 0.00 0.00 65 1013.3
20260510065203 47 17 0.0 0.0 0.00 0.00 0.00 65 1013.3
20260510064704 48 17 0.0 0.0 0.00 0.00 0.00 65 1013.2
20260510064203 48 17 0.0 0.0 0.00 0.00 0.00 65 1013.3
20260510063203 48 17 0.0 0.0 0.00 0.00 0.00 65 1013.2
20260510062704 48 17 0.0 0.0 0.00 0.00 0.00 63 1013.2
20260510062204 49 17 0.0 0.0 0.00 0.00 0.00 63 1013.1
20260510061704 49 17 0.0 0.0 0.00 0.00 0.00 63 1013.0
20260510061204 49 17 0.0 0.0 0.00 0.00 0.00 63 1013.0
20260510060703 49 17 0.0 0.0 0.00 0.00 0.00 64 1012.9
20260510060204 49 17 0.0 0.0 0.00 0.00 0.00 63 1012.9
20260510055204 48 17 0.0 0.0 0.00 0.00 0.00 66 1012.7
20260510054703 47 17 0.0 0.0 0.00 0.00 0.00 70 1012.5
20260510054203 47 17 0.0 0.0 0.00 0.00 0.00 78 1012.4
20260510053704 47 17 0.0 0.0 0.00 0.00 0.00 81 1012.3
20260510053204 47 17 0.0 0.0 0.00 0.00 0.00 84 1012.1
20260510052704 47 17 0.0 0.0 0.00 0.00 0.00 84 1011.7
20260510051203 47 17 0.0 0.0 0.00 0.00 0.00 81 1011.4
20260510050704 47 17 0.0 0.0 0.00 0.00 0.00 80 1011.4
20260510045703 48 17 0.0 0.0 0.00 0.00 0.00 78 1011.2
20260510045205 48 17 0.0 0.0 0.00 0.00 0.00 77 1011.2
20260510044705 48 17 0.0 0.0 0.00 0.00 0.00 76 1011.1
20260510044203 48 17 0.0 0.0 0.00 0.00 0.00 76 1011.0
20260510043704 48 17 0.0 0.0 0.00 0.00 0.00 75 1010.9
20260510043203 48 17 0.0 0.0 0.00 0.00 0.00 74 1010.9
20260510042704 49 17 0.0 0.0 0.00 0.00 0.00 74 1010.8
20260510042204 49 17 0.0 0.0 0.00 0.00 0.00 73 1010.8
20260510041703 49 17 0.0 0.0 0.00 0.00 0.00 73 1010.7
20260510041203 49 17 0.0 0.0 0.00 0.00 0.00 73 1010.7
20260510040704 49 17 0.0 0.0 0.00 0.00 0.00 73 1010.6
20260510040204 50 17 0.0 0.0 0.00 0.00 0.00 73 1010.6
20260510035204 50 17 0.0 0.0 0.00 0.00 0.00 74 1010.5
20260510034703 50 17 0.0 0.0 0.00 0.00 0.00 72 1010.4
20260510033704 51 17 0.0 0.0 0.00 0.00 0.00 70 1010.2
20260510033203 51 17 0.0 0.0 0.00 0.00 0.00 69 1010.1
20260510032704 52 17 0.0 0.0 0.00 0.00 0.00 68 1010.1
20260510032203 52 17 0.0 0.0 0.00 0.00 0.00 67 1010.0
20260510031703 52 17 0.0 0.0 0.00 0.00 0.00 67 1010.0
20260510031204 52 17 0.0 0.0 0.00 0.00 0.00 67 1009.9
20260510030703 52 17 0.0 0.0 0.00 0.00 0.00 65 1009.9
20260510025204 53 17 0.0 0.0 0.00 0.00 0.00 62 1009.7
20260510024704 54 17 0.0 0.0 0.00 0.00 0.00 61 1009.6
20260510023703 54 17 0.0 0.0 0.00 0.00 0.00 60 1009.4
20260510023204 55 17 0.0 0.0 0.00 0.00 0.00 59 1009.3
20260510022704 55 17 0.0 0.0 0.00 0.00 0.00 59 1009.2
20260510022203 56 17 0.0 0.0 0.00 0.00 0.00 57 1009.2
20260510021704 56 17 0.0 0.0 0.00 0.00 0.00 56 1009.1
20260510021205 56 17 0.0 0.0 0.00 0.00 0.00 56 1009.0
20260510020703 57 17 0.0 0.0 0.00 0.00 0.00 55 1008.8
20260510020204 57 17 0.0 0.0 0.00 0.00 0.00 53 1008.6
20260510015704 58 17 0.0 0.0 0.00 0.00 0.00 53 1008.6
20260510015203 58 17 0.0 0.0 0.00 0.00 0.00 54 1008.4
20260510014705 59 17 0.0 0.0 0.00 0.00 0.00 52 1008.3
20260510014204 59 17 0.0 0.0 0.00 0.00 0.00 51 1008.2
20260510013203 60 17 0.0 0.0 0.00 0.00 0.00 49 1008.0
20260510012704 61 17 0.0 0.0 0.00 0.00 0.00 48 1007.9
20260510012204 61 17 0.0 0.0 0.00 0.00 0.00 46 1007.7
20260510011704 61 17 0.0 0.0 0.00 0.00 0.00 46 1007.6
20260510011205 62 17 0.0 0.0 0.00 0.00 0.00 45 1007.5
20260510010704 62 17 0.0 0.0 0.00 0.00 0.00 44 1007.3
20260510010203 63 17 0.0 0.0 0.00 0.00 0.00 44 1007.1
20260510005204 63 17 0.0 0.0 0.00 0.00 0.00 42 1006.9
20260510004704 64 17 0.0 0.0 0.00 0.00 0.00 41 1006.9
20260510004203 64 17 0.0 0.0 0.00 0.00 0.00 41 1006.7
20260510002704 65 17 0.0 0.0 0.00 0.00 0.00 42 1006.5
20260510002204 65 17 0.0 0.0 0.00 0.00 0.00 40 1006.4
20260510001703 66 17 0.0 0.0 0.00 0.00 0.00 40 1006.2
20260510001203 66 17 0.0 0.0 0.00 0.00 0.00 39 1006.0
20260510000704 66 17 0.0 0.0 0.00 0.00 0.00 40 1006.0
20260510000204 67 17 0.0 0.0 0.00 0.00 0.00 39 1005.9
20260509235705 67 17 0.0 0.0 0.00 0.00 0.00 39 1005.7
20260509235204 67 17 0.0 0.0 0.00 0.00 0.00 39 1005.7
20260509234703 67 17 0.0 0.0 0.00 0.00 0.00 39 1005.6
20260509234205 68 17 0.0 0.0 0.00 0.00 0.00 39 1005.5
20260509233703 68 17 0.0 0.0 0.00 0.00 0.00 38 1005.3
20260509233204 68 17 0.0 0.0 0.00 0.00 0.00 38 1005.3
20260509232703 68 17 0.0 0.0 0.00 0.00 0.00 37 1005.2
20260509232203 68 17 0.0 0.0 0.00 0.00 0.00 36 1005.2
20260509231703 69 17 0.0 0.0 0.00 0.00 0.00 35 1005.0
20260509231205 69 17 0.0 0.0 0.00 0.00 0.00 33 1005.1
20260509230703 70 17 0.0 0.0 0.00 0.00 0.00 33 1005.0
20260509230203 70 17 0.0 0.0 0.00 0.00 0.00 34 1004.8
20260509225203 70 17 0.0 0.0 0.00 0.00 0.00 34 1004.8
20260509224704 70 17 0.0 0.0 0.00 0.00 0.00 34 1004.7